[[{"header":{"parameterUnit":"m.s-1","parameterCategory":1,"la1":30.2991,"la2":30.254,"lo1":-89.0895,"lo2":-89.0444,"dy":0.0017,"dx":0.0017,"nx":28,"ny":28,"refTime":"2024-08-09T03:00:00:Z","depth":0,"parameterNumber":2,"parameterNumberName":"U-component_of_WINDS"},"data":[0,0,0,0,0,0,0,0,0,0,0,0,0,0,0,0,0,0,0,0,0,0,0,0,0,0,0,0,0,0,0,0,0,0,0,0,0,0,0,0,0,0,0,0,0,0,0,0,0,0,0,0,0,0,0,0,0,0,0.8087,0.8087,0,0.8034,0.8033,0.8032,0.7993,0.7993,0.7992,0.7992,0.7937,0.7935,0.7934,0,0,0,0,0,0,0,0,0,0,0,0,0,0.8157,0.8156,0.8087,0.8087,0.8086,0.8034,0.8033,0.8032,0.7993,0.7992,0.7992,0.7992,0.7937,0.7936,0.7934,0,0,0,0,0,0,0,0,0,0,0,0,0,0.8117,0.8155,0.8087,0.806,0.8057,0.8034,0.8033,0.8032,0.7993,0.7992,0.7992,0.7991,0.7937,0.7936,0.7934,0.7934,0,0,0.7929,0.7928,0,0,0,0,0,0,0,0,0.8119,0.8115,0.8065,0.8062,0.8058,0.8019,0.8037,0.7999,0.7993,0.8017,0.7992,0.7991,0.7965,0.7961,0.7952,0.7931,0.7929,0.7929,0.7928,0.7927,0.7926,0,0,0,0,0,0,0,0.8122,0.8117,0.8066,0.8064,0.806,0.8051,0.8045,0.803,0.7994,0.8015,0.8012,0.8006,0.7963,0.7953,0.795,0.7928,0.7929,0.7927,0.7926,0.7925,0.7906,0.7906,0,0,0,0,0,0,0.8129,0.8119,0.8068,0.8064,0.8088,0.805,0.8043,0.8032,0.7994,0.7988,0.8007,0.8005,0.7957,0.7952,0.7948,0.7945,0.7927,0.7925,0.7924,0.7905,0.7906,0.7906,0,0,0,0,0,0,0.8131,0.8125,0.807,0.8091,0.8083,0.8049,0.8038,0.8032,0.8022,0.7988,0.7982,0.8004,0.7956,0.795,0.7938,0.7943,0.7924,0.7923,0.7905,0.7905,0.7906,0.794,0,0,0,0,0,0,0.8133,0.8126,0.8125,0.8091,0.8082,0.806,0.8038,0.8031,0.8019,0.8016,0.7983,0.7978,0.7955,0.7941,0.7936,0.794,0.7921,0.7904,0.7905,0.7906,0.7938,0.7942,0.7945,0,0,0,0,0,0.8136,0.8136,0.8125,0.8119,0.808,0.8061,0.8055,0.803,0.802,0.8019,0.7998,0.7979,0.7943,0.794,0.7934,0.7938,0.7903,0.7905,0.7906,0.7937,0.7941,0.7945,0,0,0,0,0,0,0.817,0.8131,0.8118,0.8108,0.8088,0.8054,0.8052,0.8035,0.8017,0.8015,0.7984,0.7977,0.7968,0.7951,0.7948,0.7936,0.7921,0.7921,0.7947,0.795,0.7954,0.7957,0.792,0,0,0,0,0,0.8177,0.8164,0.8131,0.8125,0.8116,0.8086,0.8076,0.8058,0.8036,0.8027,0.8005,0.7984,0.7969,0.7959,0.7942,0.7936,0.7929,0.7936,0.794,0.7943,0.7943,0.7939,0.7942,0.791,0.791,0.791,0,0,0.819,0.8167,0.8161,0.8131,0.8114,0.8101,0.8079,0.8066,0.8057,0.8025,0.8012,0.7995,0.797,0.7961,0.7956,0.7948,0.795,0.7944,0.7947,0.7945,0.7941,0.7944,0.7946,0.7911,0.7911,0.7911,0,0,0.8208,0.8189,0.8182,0.8166,0.814,0.812,0.8119,0.8088,0.8076,0.8062,0.8039,0.8028,0.8001,0.7984,0.7973,0.7987,0.7969,0.7983,0.7999,0.7996,0.7999,0.8001,0.8006,0.8008,0.7983,0.7983,0.7983,0,0.8227,0.8207,0.8181,0.8171,0.8159,0.8131,0.8124,0.8109,0.8079,0.8072,0.8063,0.803,0.8012,0.7999,0.8002,0.7994,0.7992,0.7985,0.8001,0.8002,0.8004,0.8008,0.801,0.7985,0.7985,0.7985,0.7984,0,0.8233,0.822,0.8218,0.819,0.8178,0.817,0.8143,0.8134,0.8118,0.81,0.8087,0.8064,0.8043,0.8039,0.8023,0.8024,0.802,0.8006,0.799,0.8009,0.8013,0.8014,0.7988,0.7987,0.7986,0.7986,0,0,0.8268,0.8228,0.8228,0.8215,0.8186,0.8175,0.8167,0.8146,0.8139,0.8121,0.8112,0.8092,0.808,0.8067,0.8049,0.8046,0.806,0.8033,0.8032,0.8039,0.806,0.807,0.8072,0.8048,0.8049,0.8049,0.8062,0,0.8281,0.8263,0.824,0.823,0.8218,0.8192,0.8185,0.8166,0.8149,0.8137,0.8119,0.8105,0.809,0.8082,0.8079,0.8059,0.8063,0.8058,0.804,0.804,0.8046,0.8074,0.8084,0.8097,0.8063,0.8064,0.8064,0,0.8292,0.8275,0.8264,0.8237,0.8231,0.8224,0.8205,0.8194,0.8173,0.8161,0.8147,0.8129,0.8119,0.8106,0.8092,0.8089,0.8081,0.807,0.807,0.8067,0.8052,0.8071,0.8101,0.8103,0.8066,0.8066,0.8066,0,0.8319,0.8294,0.8284,0.8274,0.8242,0.8238,0.8225,0.8204,0.8194,0.8177,0.817,0.8153,0.8143,0.813,0.8108,0.8101,0.8097,0.8082,0.8087,0.8087,0.8086,0.8086,0.8114,0.8082,0.8082,0.8082,0.8082,0,0.8335,0.8329,0.8296,0.8289,0.8282,0.8257,0.8251,0.8235,0.8217,0.8208,0.8186,0.8177,0.8149,0.8138,0.812,0.8112,0.8108,0.8098,0.8093,0.8099,0.81,0.8093,0.8091,0.8083,0.8083,0.8083,0.8082,0,0.8363,0.834,0.8328,0.8299,0.8292,0.8288,0.8264,0.8258,0.8241,0.823,0.8226,0.8199,0.8185,0.8162,0.8141,0.8129,0.8124,0.8116,0.8131,0.8128,0.8134,0.8134,0.8158,0.816,0.8127,0.8128,0.8128,0,0.8374,0.8369,0.834,0.8332,0.832,0.8308,0.8298,0.8274,0.8264,0.8241,0.8238,0.8222,0.8208,0.8187,0.8166,0.8151,0.8142,0.8152,0.8139,0.8146,0.8142,0.8142,0.8142,0.8154,0.8155,0.8155,0.8155,0,0.8395,0.8385,0.8371,0.8354,0.8343,0.8328,0.8313,0.8308,0.828,0.8271,0.8257,0.8246,0.8226,0.8211,0.8193,0.8179,0.8163,0.816,0.816,0.8166,0.8174,0.8169,0.8138,0.8159,0.8158,0.8158,0.8158,0.8158,0.8414,0.8409,0.8389,0.8375,0.8361,0.8347,0.834,0.8323,0.831,0.8291,0.8278,0.8265,0.8246,0.822,0.8208,0.8198,0.819,0.8191,0.8191,0.8191,0.8193,0.8177,0.8194,0.8194,0.8194,0.8194,0.8194,0,0.8435,0.8421,0.8408,0.8387,0.8377,0.8363,0.8346,0.8338,0.8326,0.831,0.8297,0.8282,0.8268,0.8247,0.8231,0.8227,0.8219,0.8224,0.8223,0.8221,0.8201,0.8202,0.823,0.823,0.823,0.823,0.823,0.823,0.8444,0.8434,0.8422,0.8406,0.8392,0.8379,0.837,0.8358,0.8345,0.8328,0.8316,0.8303,0.8285,0.8269,0.8255,0.825,0.8245,0.8252,0.8244,0.8225,0.8222,0.8219,0.8219,0.8251,0.8251,0.8264,0.8264,0.8264]},{"header":{"parameterUnit":"m.s-1","parameterCategory":1,"la1":30.2991,"la2":30.254,"lo1":-89.0895,"lo2":-89.0444,"dy":0.0017,"dx":0.0017,"nx":28,"ny":28,"refTime":"2024-08-09T03:00:00:Z","depth":0,"parameterNumber":3,"parameterNumberName":"V-component_of_WINDS"},"data":[0,0,0,0,0,0,0,0,0,0,0,0,0,0,0,0,0,0,0,0,0,0,0,0,0,0,0,0,0,0,0,0,0,0,0,0,0,0,0,0,0,0,0,0,0,0,0,0,0,0,0,0,0,0,0,0,0,0,-5.4136,-5.4137,0,-5.4226,-5.4227,-5.4228,-5.4173,-5.4171,-5.4168,-5.4166,-5.4256,-5.4261,-5.4266,0,0,0,0,0,0,0,0,0,0,0,0,0,-5.3917,-5.3921,-5.4136,-5.4137,-5.4139,-5.4226,-5.4227,-5.4229,-5.4174,-5.4171,-5.4168,-5.4165,-5.4255,-5.426,-5.4266,0,0,0,0,0,0,0,0,0,0,0,0,0,-5.401,-5.3923,-5.4136,-5.4122,-5.4121,-5.4226,-5.4227,-5.4229,-5.4175,-5.4171,-5.4167,-5.4163,-5.4253,-5.426,-5.4267,-5.439,0,0,-5.4289,-5.4292,0,0,0,0,0,0,0,0,-5.4005,-5.4018,-5.4123,-5.4123,-5.4123,-5.4185,-5.4183,-5.4283,-5.4176,-5.4154,-5.4166,-5.4161,-5.4235,-5.4244,-5.4269,-5.4394,-5.4398,-5.429,-5.4294,-5.4297,-5.4299,0,0,0,0,0,0,0,-5.3999,-5.4014,-5.4172,-5.4124,-5.4124,-5.4111,-5.412,-5.4202,-5.4216,-5.4156,-5.4152,-5.4164,-5.4235,-5.4262,-5.4271,-5.4399,-5.429,-5.4296,-5.43,-5.4303,-5.4631,-5.4635,0,0,0,0,0,0,-5.3993,-5.4009,-5.4169,-5.4174,-5.4053,-5.4118,-5.4128,-5.4169,-5.4215,-5.4218,-5.4167,-5.4161,-5.4252,-5.4263,-5.4274,-5.4422,-5.4297,-5.4304,-5.4308,-5.4627,-5.4632,-5.4637,0,0,0,0,0,0,-5.3989,-5.4008,-5.4165,-5.4091,-5.411,-5.4126,-5.4172,-5.4173,-5.42,-5.4223,-5.4225,-5.4193,-5.4249,-5.4264,-5.4362,-5.4424,-5.4307,-5.4314,-5.4622,-5.4628,-5.4634,-5.4718,0,0,0,0,0,0,-5.3983,-5.4007,-5.4054,-5.4092,-5.4114,-5.4252,-5.4176,-5.4177,-5.4213,-5.4206,-5.4248,-5.4251,-5.4247,-5.4351,-5.4369,-5.4432,-5.432,-5.4616,-5.4625,-5.4632,-5.471,-5.4726,-5.4741,0,0,0,0,0,-5.3975,-5.4073,-5.4056,-5.4076,-5.4173,-5.4256,-5.4268,-5.4262,-5.4218,-5.4266,-5.4281,-5.425,-5.4415,-5.4362,-5.4381,-5.4447,-5.4612,-5.4622,-5.4632,-5.4703,-5.4723,-5.474,0,0,0,0,0,0,-5.404,-5.4077,-5.4059,-5.4173,-5.4212,-5.4246,-5.4305,-5.4284,-5.4336,-5.4327,-5.4317,-5.4327,-5.443,-5.4448,-5.4389,-5.457,-5.4506,-5.4521,-5.4554,-5.4573,-5.4589,-5.4582,-5.4326,0,0,0,0,0,-5.4067,-5.4132,-5.4161,-5.4258,-5.4279,-5.4289,-5.4325,-5.4318,-5.4357,-5.4373,-5.4395,-5.4434,-5.4495,-5.4535,-5.4592,-5.4712,-5.4721,-5.4767,-5.4783,-5.4796,-5.4808,-5.4874,-5.4895,-5.4669,-5.4669,-5.4669,0,0,-5.4124,-5.4153,-5.4194,-5.4272,-5.4301,-5.4368,-5.4303,-5.4376,-5.4426,-5.4384,-5.4478,-5.4496,-5.4539,-5.465,-5.4699,-5.4668,-5.4873,-5.4808,-5.4818,-5.4824,-5.4886,-5.4908,-5.4927,-5.4675,-5.4674,-5.4673,0,0,-5.4263,-5.4291,-5.4376,-5.4407,-5.4452,-5.4459,-5.448,-5.4518,-5.4529,-5.4624,-5.4594,-5.4653,-5.4758,-5.479,-5.482,-5.4974,-5.4948,-5.4993,-5.5074,-5.5139,-5.5157,-5.5173,-5.5228,-5.5248,-5.5005,-5.5006,-5.5006,0,-5.4328,-5.4428,-5.4421,-5.4498,-5.4533,-5.45,-5.4586,-5.4616,-5.4678,-5.4703,-5.4668,-5.48,-5.4826,-5.4944,-5.4982,-5.5007,-5.5031,-5.4988,-5.5155,-5.5171,-5.5185,-5.5238,-5.5259,-5.5011,-5.501,-5.501,-5.5009,0,-5.4506,-5.4577,-5.4639,-5.4701,-5.4744,-5.4824,-5.483,-5.4874,-5.4864,-5.4874,-5.4972,-5.5003,-5.5067,-5.5094,-5.5084,-5.5212,-5.5191,-5.5156,-5.5092,-5.5212,-5.5262,-5.5282,-5.5018,-5.5016,-5.5015,-5.5013,0,0,-5.4686,-5.4745,-5.4769,-5.4797,-5.4846,-5.49,-5.498,-5.5043,-5.5081,-5.5125,-5.5192,-5.5283,-5.5251,-5.5285,-5.5279,-5.5336,-5.5457,-5.5293,-5.5294,-5.5323,-5.56,-5.5626,-5.565,-5.544,-5.5444,-5.5447,-5.5596,0,-5.4828,-5.4968,-5.4965,-5.5095,-5.516,-5.513,-5.52,-5.5238,-5.525,-5.5307,-5.5321,-5.5386,-5.5338,-5.5359,-5.5414,-5.543,-5.5512,-5.542,-5.5502,-5.5505,-5.5492,-5.5676,-5.5703,-5.5843,-5.5616,-5.5619,-5.5621,0,-5.5012,-5.5064,-5.5201,-5.5242,-5.5269,-5.5331,-5.539,-5.5445,-5.5488,-5.5493,-5.5533,-5.5518,-5.56,-5.5534,-5.5647,-5.5584,-5.5618,-5.5631,-5.5636,-5.5644,-5.557,-5.5688,-5.5887,-5.5908,-5.5652,-5.5649,-5.5647,0,-5.5131,-5.5235,-5.533,-5.5355,-5.5405,-5.545,-5.5473,-5.5512,-5.5551,-5.5602,-5.5627,-5.5687,-5.572,-5.5767,-5.5769,-5.5721,-5.5883,-5.5817,-5.589,-5.589,-5.5925,-5.5922,-5.6132,-5.5947,-5.5946,-5.5946,-5.5945,0,-5.5289,-5.5374,-5.5384,-5.5443,-5.5537,-5.5534,-5.5628,-5.5646,-5.5682,-5.5744,-5.5722,-5.578,-5.5779,-5.5839,-5.5841,-5.5935,-5.595,-5.5956,-5.5956,-5.5959,-5.5958,-5.598,-5.5971,-5.5951,-5.595,-5.5949,-5.5948,0,-5.5437,-5.5447,-5.5549,-5.5589,-5.5601,-5.567,-5.5704,-5.576,-5.5771,-5.585,-5.5868,-5.5886,-5.5956,-5.5963,-5.6043,-5.6045,-5.6158,-5.6147,-5.6144,-5.6142,-5.6214,-5.6207,-5.6446,-5.6477,-5.6271,-5.6273,-5.6274,0,-5.5537,-5.5602,-5.565,-5.569,-5.5716,-5.5781,-5.5821,-5.5821,-5.5864,-5.5918,-5.5968,-5.6036,-5.609,-5.6203,-5.6223,-5.6285,-5.6275,-5.6355,-5.6284,-5.6285,-5.6277,-5.6273,-5.628,-5.6368,-5.637,-5.6372,-5.6374,0,-5.5715,-5.5717,-5.5776,-5.5838,-5.5886,-5.5934,-5.5979,-5.6014,-5.6019,-5.6068,-5.614,-5.6182,-5.6265,-5.6333,-5.6395,-5.6418,-5.6398,-5.6396,-5.6416,-5.6419,-5.6415,-5.6419,-5.6181,-5.639,-5.6388,-5.6387,-5.6386,-5.6386,-5.5842,-5.5899,-5.5942,-5.6009,-5.6043,-5.6086,-5.6142,-5.6161,-5.6221,-5.6289,-5.6285,-5.6365,-5.6407,-5.6488,-5.6516,-5.6578,-5.6551,-5.658,-5.6588,-5.6595,-5.6603,-5.6405,-5.6589,-5.6589,-5.6588,-5.6588,-5.6587,0,-5.6019,-5.6046,-5.6107,-5.6172,-5.6225,-5.6202,-5.6251,-5.6297,-5.6367,-5.6409,-5.6463,-5.6546,-5.6613,-5.6639,-5.6704,-5.6749,-5.6741,-5.6766,-5.6762,-5.6768,-5.6622,-5.6599,-5.6771,-5.6771,-5.6771,-5.6771,-5.6771,-5.6771,-5.6117,-5.6213,-5.6221,-5.6333,-5.6359,-5.6437,-5.6468,-5.6508,-5.6541,-5.6635,-5.6691,-5.6708,-5.6744,-5.6811,-5.6871,-5.6877,-5.6902,-5.6932,-5.6934,-5.6797,-5.6778,-5.6761,-5.6738,-5.6937,-5.6937,-5.7074,-5.7076,-5.7077]}]]